Time,TemperatureF,DewpointF,PressureIn,WindDirection,WindDirectionDegrees,WindSpeedMPH,WindSpeedGustMPH,Humidity,HourlyPrecipIn,Conditions,Clouds,dailyrainin,SoftwareType,DateUTC
2013-02-13 00:00:00,23.1,19.0,29.70,SW,236,1.0,4.0,84,0.00,,SKC,0.01,VWS V14.01,2013-02-13 06:00:00,
2013-02-13 00:04:00,23.1,19.3,29.70,SW,236,1.0,4.0,85,0.00,,SKC,0.01,VWS V14.01,2013-02-13 06:04:00,
2013-02-13 00:09:00,23.1,19.3,29.70,SW,236,0.0,3.0,85,0.00,,SKC,0.00,VWS V14.01,2013-02-13 06:09:00,
2013-02-13 00:14:00,23.0,19.2,29.70,SW,236,1.0,4.0,85,0.00,,SKC,0.00,VWS V14.01,2013-02-13 06:14:00,
2013-02-13 00:19:00,23.1,19.0,29.70,SW,236,2.0,4.0,84,0.00,,SKC,0.00,VWS V14.01,2013-02-13 06:19:00,
2013-02-13 00:24:00,23.1,19.0,29.70,SW,236,1.0,5.0,84,0.00,,SKC,0.00,VWS V14.01,2013-02-13 06:24:00,
2013-02-13 00:29:00,23.0,18.9,29.70,SW,236,0.0,5.0,84,0.00,,SKC,0.00,VWS V14.01,2013-02-13 06:29:00,
2013-02-13 00:30:00,23.0,19.2,29.70,WSW,237,3.0,6.0,85,0.00,,SKC,0.00,VWS V14.01,2013-02-13 06:30:00,
2013-02-13 00:34:00,23.0,18.9,29.70,SW,236,2.0,5.0,84,0.00,,SKC,0.00,VWS V14.01,2013-02-13 06:34:00,
2013-02-13 00:39:00,23.0,19.2,29.69,WSW,237,2.0,4.0,85,0.00,,SKC,0.00,VWS V14.01,2013-02-13 06:39:00,
2013-02-13 00:44:00,23.0,19.2,29.69,WSW,237,4.0,5.0,85,0.00,,SKC,0.00,VWS V14.01,2013-02-13 06:44:00,
2013-02-13 00:49:00,23.0,19.2,29.69,WSW,237,2.0,5.0,85,0.00,,SKC,0.00,VWS V14.01,2013-02-13 06:49:00,
2013-02-13 00:54:00,22.9,19.1,29.69,WSW,237,2.0,6.0,85,0.00,,SKC,0.00,VWS V14.01,2013-02-13 06:54:00,
2013-02-13 00:59:00,22.9,19.1,29.68,WSW,237,2.0,6.0,85,0.00,,SKC,0.00,VWS V14.01,2013-02-13 06:59:00,
2013-02-13 01:00:00,22.9,19.1,29.68,WSW,238,2.0,7.0,85,0.00,,SKC,0.00,VWS V14.01,2013-02-13 07:00:00,
2013-02-13 01:04:00,22.9,19.1,29.68,WSW,238,4.0,7.0,85,0.00,,SKC,0.00,VWS V14.01,2013-02-13 07:04:00,
2013-02-13 01:09:00,22.8,19.0,29.68,WSW,238,2.0,5.0,85,0.00,,SKC,0.00,VWS V14.01,2013-02-13 07:09:00,
2013-02-13 01:14:00,22.8,19.0,29.68,WSW,238,1.0,5.0,85,0.00,,SKC,0.00,VWS V14.01,2013-02-13 07:14:00,
2013-02-13 01:20:00,22.7,18.9,29.68,WSW,238,2.0,5.0,85,0.00,,SKC,0.00,VWS V14.01,2013-02-13 07:20:00,
2013-02-13 01:25:00,22.7,18.9,29.68,WSW,238,0.0,5.0,85,0.00,,SKC,0.00,VWS V14.01,2013-02-13 07:25:00,
2013-02-13 01:30:00,22.7,18.9,29.68,WSW,238,4.0,6.0,85,0.00,,SKC,0.00,VWS V14.01,2013-02-13 07:30:00,
2013-02-13 01:35:00,22.6,18.8,29.68,WSW,238,1.0,6.0,85,0.00,,SKC,0.00,VWS V14.01,2013-02-13 07:35:00,
2013-02-13 01:40:00,22.6,18.8,29.68,WSW,238,4.0,6.0,85,0.00,,SKC,0.00,VWS V14.01,2013-02-13 07:40:00,
2013-02-13 01:45:00,22.5,18.7,29.68,WSW,238,1.0,6.0,85,0.00,,SKC,0.00,VWS V14.01,2013-02-13 07:45:00,
2013-02-13 01:50:00,22.5,18.7,29.68,WSW,238,0.0,6.0,85,0.00,,SKC,0.00,VWS V14.01,2013-02-13 07:50:00,
2013-02-13 01:55:00,22.4,18.6,29.68,WSW,238,1.0,6.0,85,0.00,,SKC,0.00,VWS V14.01,2013-02-13 07:55:00,
2013-02-13 02:00:00,22.3,18.5,29.67,WSW,238,1.0,6.0,85,0.00,,SKC,0.00,VWS V14.01,2013-02-13 08:00:00,
2013-02-13 02:05:00,22.2,18.4,29.68,WSW,239,1.0,6.0,85,0.00,,SKC,0.00,VWS V14.01,2013-02-13 08:05:00,
2013-02-13 02:10:00,22.1,18.3,29.68,WSW,239,0.0,5.0,85,0.00,,SKC,0.00,VWS V14.01,2013-02-13 08:10:00,
2013-02-13 02:15:00,22.0,18.2,29.67,WSW,239,1.0,5.0,85,0.00,,SKC,0.00,VWS V14.01,2013-02-13 08:15:00,
2013-02-13 02:20:00,21.8,18.3,29.67,WSW,239,0.0,5.0,86,0.00,,SKC,0.00,VWS V14.01,2013-02-13 08:20:00,
2013-02-13 02:25:00,21.7,18.2,29.67,WSW,239,0.0,5.0,86,0.00,,SKC,0.00,VWS V14.01,2013-02-13 08:25:00,
2013-02-13 02:30:00,21.7,18.2,29.67,WSW,239,0.0,5.0,86,0.00,,SKC,0.00,VWS V14.01,2013-02-13 08:30:00,
2013-02-13 02:35:00,21.6,18.1,29.67,WSW,239,0.0,5.0,86,0.00,,SKC,0.00,VWS V14.01,2013-02-13 08:35:00,
2013-02-13 02:40:00,21.6,18.1,29.67,WSW,239,0.0,4.0,86,0.00,,SKC,0.00,VWS V14.01,2013-02-13 08:40:00,
2013-02-13 02:45:00,21.6,18.3,29.67,WSW,239,1.0,4.0,87,0.00,,SKC,0.00,VWS V14.01,2013-02-13 08:45:00,
2013-02-13 02:50:00,21.6,18.3,29.67,WSW,239,0.0,4.0,87,0.00,,SKC,0.00,VWS V14.01,2013-02-13 08:50:00,
2013-02-13 02:55:00,21.6,18.3,29.67,WSW,239,0.0,4.0,87,0.00,,SKC,0.00,VWS V14.01,2013-02-13 08:55:00,
2013-02-13 03:00:00,21.5,18.2,29.67,WSW,239,2.0,4.0,87,0.00,,SKC,0.00,VWS V14.01,2013-02-13 09:00:00,
2013-02-13 03:05:00,21.6,18.3,29.67,WSW,239,0.0,4.0,87,0.00,,SKC,0.00,VWS V14.01,2013-02-13 09:05:00,
2013-02-13 03:10:00,21.6,18.3,29.67,WSW,239,1.0,5.0,87,0.00,,SKC,0.00,VWS V14.01,2013-02-13 09:10:00,
2013-02-13 03:15:00,21.6,18.3,29.66,WSW,239,0.0,5.0,87,0.00,,SKC,0.00,VWS V14.01,2013-02-13 09:15:00,
2013-02-13 03:20:00,21.6,18.3,29.67,WSW,239,2.0,5.0,87,0.00,,SKC,0.00,VWS V14.01,2013-02-13 09:20:00,
2013-02-13 03:25:00,21.6,18.3,29.66,WSW,239,1.0,5.0,87,0.00,,SKC,0.00,VWS V14.01,2013-02-13 09:25:00,
2013-02-13 03:30:00,21.6,18.3,29.66,WSW,238,2.0,6.0,87,0.00,,SKC,0.00,VWS V14.01,2013-02-13 09:30:00,
2013-02-13 03:35:00,21.6,18.3,29.66,WSW,238,0.0,1.0,87,0.00,,SKC,0.00,VWS V14.01,2013-02-13 09:35:00,
2013-02-13 03:40:00,21.6,18.3,29.66,WSW,238,0.0,2.0,87,0.00,,SKC,0.00,VWS V14.01,2013-02-13 09:40:00,
2013-02-13 03:45:00,21.5,18.5,29.66,WSW,238,0.0,2.0,88,0.00,,SKC,0.00,VWS V14.01,2013-02-13 09:45:00,
2013-02-13 03:50:00,21.5,18.5,29.65,WSW,238,0.0,3.0,88,0.00,,SKC,0.00,VWS V14.01,2013-02-13 09:50:00,
2013-02-13 03:55:00,21.4,18.4,29.65,WSW,238,0.0,4.0,88,0.00,,SKC,0.00,VWS V14.01,2013-02-13 09:55:00,
2013-02-13 04:00:00,21.3,18.3,29.66,WSW,238,2.0,4.0,88,0.00,,SKC,0.00,VWS V14.01,2013-02-13 10:00:00,
2013-02-13 04:01:00,21.4,18.4,29.66,WSW,238,1.0,4.0,88,0.00,,SKC,0.00,VWS V14.01,2013-02-13 10:01:00,
2013-02-13 04:06:00,21.3,18.3,29.66,WSW,238,2.0,2.0,88,0.00,,SKC,0.00,VWS V14.01,2013-02-13 10:06:00,
2013-02-13 04:11:00,21.5,18.5,29.66,WSW,238,0.0,2.0,88,0.00,,SKC,0.00,VWS V14.01,2013-02-13 10:11:00,
2013-02-13 04:16:00,21.4,18.7,29.67,WSW,238,3.0,4.0,89,0.00,,SKC,0.00,VWS V14.01,2013-02-13 10:16:00,
2013-02-13 04:21:00,21.3,18.3,29.66,WSW,238,0.0,4.0,88,0.00,,SKC,0.00,VWS V14.01,2013-02-13 10:21:00,
2013-02-13 04:26:00,21.1,18.1,29.66,WSW,238,0.0,4.0,88,0.00,,SKC,0.00,VWS V14.01,2013-02-13 10:26:00,
2013-02-13 04:30:00,20.9,17.9,29.66,WSW,238,1.0,4.0,88,0.00,,SKC,0.00,VWS V14.01,2013-02-13 10:30:00,
2013-02-13 04:31:00,21.0,18.0,29.66,WSW,238,1.0,4.0,88,0.00,,SKC,0.00,VWS V14.01,2013-02-13 10:31:00,
2013-02-13 04:36:00,20.9,17.9,29.66,WSW,238,1.0,2.0,88,0.00,,SKC,0.00,VWS V14.01,2013-02-13 10:36:00,
2013-02-13 04:41:00,20.9,17.9,29.65,WSW,238,1.0,5.0,88,0.00,,SKC,0.00,VWS V14.01,2013-02-13 10:41:00,
2013-02-13 04:46:00,20.9,18.2,29.65,WSW,238,0.0,5.0,89,0.00,,SKC,0.00,VWS V14.01,2013-02-13 10:46:00,
2013-02-13 04:51:00,20.9,18.2,29.65,WSW,238,4.0,5.0,89,0.00,,SKC,0.00,VWS V14.01,2013-02-13 10:51:00,
2013-02-13 04:56:00,20.9,18.2,29.65,WSW,238,1.0,5.0,89,0.00,,SKC,0.00,VWS V14.01,2013-02-13 10:56:00,
2013-02-13 05:00:00,20.9,18.2,29.66,WSW,238,0.0,5.0,89,0.00,,SKC,0.00,VWS V14.01,2013-02-13 11:00:00,
2013-02-13 05:01:00,20.9,18.2,29.65,WSW,238,0.0,5.0,89,0.00,,SKC,0.00,VWS V14.01,2013-02-13 11:01:00,
2013-02-13 05:06:00,20.9,18.2,29.66,WSW,238,0.0,0.0,89,0.00,,SKC,0.00,VWS V14.01,2013-02-13 11:06:00,
2013-02-13 05:11:00,20.9,18.2,29.66,WSW,238,0.0,2.0,89,0.00,,SKC,0.00,VWS V14.01,2013-02-13 11:11:00,
2013-02-13 05:16:00,20.8,18.1,29.66,WSW,238,0.0,2.0,89,0.00,,SKC,0.00,VWS V14.01,2013-02-13 11:16:00,
2013-02-13 05:21:00,20.9,18.2,29.66,WSW,238,0.0,2.0,89,0.00,,SKC,0.00,VWS V14.01,2013-02-13 11:21:00,
2013-02-13 05:26:00,20.9,18.2,29.66,WSW,238,0.0,2.0,89,0.00,,SKC,0.00,VWS V14.01,2013-02-13 11:26:00,
2013-02-13 05:30:00,20.9,18.2,29.65,WSW,238,0.0,4.0,89,0.00,,SKC,0.00,VWS V14.01,2013-02-13 11:30:00,
2013-02-13 05:31:00,20.9,18.2,29.65,WSW,238,0.0,4.0,89,0.00,,SKC,0.00,VWS V14.01,2013-02-13 11:31:00,
2013-02-13 05:36:00,20.9,18.2,29.65,WSW,238,2.0,2.0,89,0.00,,SKC,0.00,VWS V14.01,2013-02-13 11:36:00,
2013-02-13 05:41:00,20.9,18.2,29.65,WSW,238,2.0,4.0,89,0.00,,SKC,0.00,VWS V14.01,2013-02-13 11:41:00,
2013-02-13 05:46:00,20.9,18.2,29.65,WSW,238,0.0,5.0,89,0.00,,SKC,0.00,VWS V14.01,2013-02-13 11:46:00,
2013-02-13 05:51:00,20.9,18.2,29.65,WSW,238,1.0,5.0,89,0.00,,SKC,0.00,VWS V14.01,2013-02-13 11:51:00,
2013-02-13 05:56:00,20.9,18.2,29.65,WSW,238,2.0,5.0,89,0.00,,SKC,0.00,VWS V14.01,2013-02-13 11:56:00,
2013-02-13 06:00:00,20.8,18.1,29.65,WSW,238,1.0,5.0,89,0.00,,SKC,0.00,VWS V14.01,2013-02-13 12:00:00,
2013-02-13 06:01:00,20.9,18.2,29.65,WSW,238,0.0,5.0,89,0.00,,SKC,0.00,VWS V14.01,2013-02-13 12:01:00,
2013-02-13 06:06:00,20.8,18.1,29.65,WSW,238,2.0,3.0,89,0.00,,SKC,0.00,VWS V14.01,2013-02-13 12:06:00,
2013-02-13 06:11:00,20.8,18.1,29.65,WSW,238,3.0,5.0,89,0.00,,SKC,0.00,VWS V14.01,2013-02-13 12:11:00,
2013-02-13 06:16:00,20.7,18.2,29.64,WSW,238,1.0,5.0,90,0.00,,SKC,0.00,VWS V14.01,2013-02-13 12:16:00,
2013-02-13 06:21:00,20.7,18.0,29.64,WSW,238,1.0,5.0,89,0.00,,SKC,0.00,VWS V14.01,2013-02-13 12:21:00,
2013-02-13 06:26:00,20.5,17.8,29.64,WSW,238,2.0,6.0,89,0.00,,SKC,0.00,VWS V14.01,2013-02-13 12:26:00,
2013-02-13 06:30:00,20.2,17.5,29.64,WSW,238,1.0,6.0,89,0.00,,SKC,0.00,VWS V14.01,2013-02-13 12:30:00,
2013-02-13 06:31:00,20.2,17.5,29.64,WSW,238,1.0,6.0,89,0.00,,SKC,0.00,VWS V14.01,2013-02-13 12:31:00,
2013-02-13 06:36:00,20.2,17.5,29.64,WSW,238,2.0,3.0,89,0.00,,SKC,0.00,VWS V14.01,2013-02-13 12:36:00,
2013-02-13 06:41:00,20.2,17.7,29.64,WSW,238,1.0,4.0,90,0.00,,SKC,0.00,VWS V14.01,2013-02-13 12:41:00,
2013-02-13 06:46:00,20.2,17.7,29.64,WSW,238,2.0,4.0,90,0.00,,SKC,0.00,VWS V14.01,2013-02-13 12:46:00,
2013-02-13 06:51:00,20.2,17.7,29.64,WSW,238,1.0,5.0,90,0.00,,SKC,0.00,VWS V14.01,2013-02-13 12:51:00,
2013-02-13 06:57:00,20.3,17.8,29.63,WSW,238,2.0,5.0,90,0.00,,SKC,0.00,VWS V14.01,2013-02-13 12:57:00,
2013-02-13 07:00:00,20.4,17.9,29.64,WSW,238,2.0,5.0,90,0.00,,SKC,0.00,VWS V14.01,2013-02-13 13:00:00,
2013-02-13 07:02:00,20.3,17.8,29.64,WSW,238,0.0,5.0,90,0.00,,SKC,0.00,VWS V14.01,2013-02-13 13:02:00,
2013-02-13 07:07:00,20.4,17.9,29.64,WSW,238,2.0,2.0,90,0.00,,SKC,0.00,VWS V14.01,2013-02-13 13:07:00,
2013-02-13 07:12:00,20.5,18.0,29.64,WSW,238,2.0,5.0,90,0.00,,SKC,0.00,VWS V14.01,2013-02-13 13:12:00,
2013-02-13 07:17:00,20.5,18.0,29.64,WSW,238,2.0,5.0,90,0.00,,SKC,0.00,VWS V14.01,2013-02-13 13:17:00,
2013-02-13 07:22:00,20.5,18.0,29.63,WSW,238,0.0,5.0,90,0.00,,SKC,0.00,VWS V14.01,2013-02-13 13:22:00,
2013-02-13 07:27:00,20.5,18.0,29.63,WSW,238,0.0,5.0,90,0.00,,SKC,0.00,VWS V14.01,2013-02-13 13:27:00,
2013-02-13 07:30:00,20.5,18.0,29.63,WSW,238,4.0,5.0,90,0.00,,SKC,0.00,VWS V14.01,2013-02-13 13:30:00,
2013-02-13 07:32:00,20.6,18.1,29.63,WSW,238,5.0,5.0,90,0.00,,SKC,0.00,VWS V14.01,2013-02-13 13:32:00,
2013-02-13 07:37:00,20.6,18.1,29.63,WSW,238,2.0,4.0,90,0.00,,SKC,0.00,VWS V14.01,2013-02-13 13:37:00,
2013-02-13 07:42:00,20.5,18.0,29.63,WSW,238,2.0,4.0,90,0.00,,SKC,0.00,VWS V14.01,2013-02-13 13:42:00,
2013-02-13 07:47:00,20.6,18.1,29.63,WSW,238,2.0,4.0,90,0.00,,SKC,0.00,VWS V14.01,2013-02-13 13:47:00,
2013-02-13 07:52:00,20.6,18.1,29.63,WSW,238,2.0,4.0,90,0.00,,SKC,0.00,VWS V14.01,2013-02-13 13:52:00,
2013-02-13 07:57:00,20.7,18.2,29.63,WSW,238,2.0,7.0,90,0.00,,SKC,0.00,VWS V14.01,2013-02-13 13:57:00,
2013-02-13 08:00:00,20.8,18.3,29.63,WSW,238,3.0,7.0,90,0.00,,SKC,0.00,VWS V14.01,2013-02-13 14:00:00,
2013-02-13 08:02:00,20.8,18.3,29.63,WSW,238,0.0,7.0,90,0.00,,SKC,0.00,VWS V14.01,2013-02-13 14:02:00,
2013-02-13 08:07:00,20.8,18.3,29.63,WSW,238,2.0,5.0,90,0.00,,SKC,0.00,VWS V14.01,2013-02-13 14:07:00,
2013-02-13 08:12:00,20.9,18.4,29.63,WSW,238,2.0,5.0,90,0.00,,SKC,0.00,VWS V14.01,2013-02-13 14:12:00,
2013-02-13 08:17:00,21.0,18.5,29.63,SW,236,0.0,5.0,90,0.00,,SKC,0.00,VWS V14.01,2013-02-13 14:17:00,
2013-02-13 08:22:00,21.1,18.6,29.63,SW,236,2.0,5.0,90,0.00,,SKC,0.00,VWS V14.01,2013-02-13 14:22:00,
2013-02-13 08:27:00,21.3,18.8,29.63,SW,236,1.0,5.0,90,0.00,,SKC,0.00,VWS V14.01,2013-02-13 14:27:00,
2013-02-13 08:30:00,21.4,18.9,29.62,SW,236,2.0,5.0,90,0.00,,SKC,0.00,VWS V14.01,2013-02-13 14:30:00,
2013-02-13 08:32:00,21.4,18.9,29.62,SW,236,2.0,5.0,90,0.00,,SKC,0.00,VWS V14.01,2013-02-13 14:32:00,
2013-02-13 08:37:00,21.5,19.0,29.63,SW,236,3.0,3.0,90,0.00,,SKC,0.00,VWS V14.01,2013-02-13 14:37:00,
2013-02-13 08:42:00,21.6,19.1,29.63,SW,236,3.0,5.0,90,0.00,,SKC,0.00,VWS V14.01,2013-02-13 14:42:00,
2013-02-13 08:47:00,21.7,19.2,29.63,SW,236,4.0,5.0,90,0.00,,SKC,0.00,VWS V14.01,2013-02-13 14:47:00,
2013-02-13 08:52:00,21.8,19.1,29.63,SW,236,0.0,5.0,89,0.00,,SKC,0.00,VWS V14.01,2013-02-13 14:52:00,
2013-02-13 08:57:00,21.9,19.2,29.63,SW,236,0.0,5.0,89,0.00,,SKC,0.00,VWS V14.01,2013-02-13 14:57:00,
2013-02-13 09:00:00,22.1,19.4,29.63,SW,236,2.0,5.0,89,0.00,,SKC,0.00,VWS V14.01,2013-02-13 15:00:00,
2013-02-13 09:02:00,22.0,19.3,29.63,SW,236,0.0,5.0,89,0.00,,SKC,0.00,VWS V14.01,2013-02-13 15:02:00,
2013-02-13 09:07:00,22.1,19.4,29.63,SW,236,1.0,4.0,89,0.00,,SKC,0.00,VWS V14.01,2013-02-13 15:07:00,
2013-02-13 09:12:00,22.3,19.6,29.63,SW,236,0.0,4.0,89,0.00,,SKC,0.00,VWS V14.01,2013-02-13 15:12:00,
2013-02-13 09:17:00,22.4,19.7,29.62,SW,236,1.0,4.0,89,0.00,,SKC,0.00,VWS V14.01,2013-02-13 15:17:00,
2013-02-13 09:22:00,22.5,19.8,29.62,SW,236,4.0,5.0,89,0.00,,SKC,0.00,VWS V14.01,2013-02-13 15:22:00,
2013-02-13 09:27:00,22.6,19.6,29.62,SW,236,5.0,5.0,88,0.00,,SKC,0.00,VWS V14.01,2013-02-13 15:27:00,
2013-02-13 09:30:00,22.8,19.8,29.62,SW,236,1.0,5.0,88,0.00,,SKC,0.00,VWS V14.01,2013-02-13 15:30:00,
2013-02-13 09:32:00,22.8,19.8,29.62,SW,236,2.0,5.0,88,0.00,,SKC,0.00,VWS V14.01,2013-02-13 15:32:00,
2013-02-13 09:37:00,22.9,19.9,29.62,SW,236,4.0,5.0,88,0.00,,SKC,0.00,VWS V14.01,2013-02-13 15:37:00,
2013-02-13 09:42:00,23.0,20.0,29.62,SW,236,4.0,5.0,88,0.00,,SKC,0.00,VWS V14.01,2013-02-13 15:42:00,
2013-02-13 09:47:00,23.1,20.1,29.62,SW,236,1.0,6.0,88,0.00,,SKC,0.00,VWS V14.01,2013-02-13 15:47:00,
2013-02-13 09:52:00,23.3,20.3,29.62,SW,236,5.0,6.0,88,0.00,,SKC,0.00,VWS V14.01,2013-02-13 15:52:00,
2013-02-13 09:58:00,23.5,20.2,29.62,SW,236,5.0,6.0,87,0.00,,SKC,0.00,VWS V14.01,2013-02-13 15:58:00,
2013-02-13 10:00:00,23.9,20.6,29.62,SW,236,0.0,6.0,87,0.00,,SKC,0.00,VWS V14.01,2013-02-13 16:00:00,
2013-02-13 10:03:00,23.7,20.4,29.62,SW,236,0.0,6.0,87,0.00,,SKC,0.00,VWS V14.01,2013-02-13 16:03:00,
2013-02-13 10:08:00,24.0,20.7,29.62,SW,236,0.0,0.0,87,0.00,,SKC,0.00,VWS V14.01,2013-02-13 16:08:00,
2013-02-13 10:13:00,24.3,21.0,29.62,SW,236,0.0,0.0,87,0.00,,SKC,0.00,VWS V14.01,2013-02-13 16:13:00,
2013-02-13 10:18:00,24.5,21.2,29.62,SW,236,0.0,0.0,87,0.00,,SKC,0.00,VWS V14.01,2013-02-13 16:18:00,
2013-02-13 10:23:00,24.5,20.9,29.61,SW,236,0.0,4.0,86,0.00,,SKC,0.00,VWS V14.01,2013-02-13 16:23:00,
2013-02-13 10:28:00,24.7,21.1,29.61,SW,236,2.0,4.0,86,0.00,,SKC,0.00,VWS V14.01,2013-02-13 16:28:00,
2013-02-13 10:30:00,25.0,21.1,29.61,SW,236,4.0,4.0,85,0.00,,SKC,0.00,VWS V14.01,2013-02-13 16:30:00,
2013-02-13 10:33:00,24.9,21.0,29.61,SW,236,1.0,4.0,85,0.00,,SKC,0.00,VWS V14.01,2013-02-13 16:33:00,
2013-02-13 10:38:00,25.1,21.2,29.61,SW,236,6.0,6.0,85,0.00,,SKC,0.00,VWS V14.01,2013-02-13 16:38:00,
2013-02-13 10:43:00,25.2,21.3,29.61,SW,236,2.0,6.0,85,0.00,,SKC,0.00,VWS V14.01,2013-02-13 16:43:00,
2013-02-13 10:48:00,25.5,21.6,29.61,SW,236,2.0,6.0,85,0.00,,SKC,0.00,VWS V14.01,2013-02-13 16:48:00,
2013-02-13 10:53:00,25.8,21.6,29.61,SW,236,4.0,6.0,84,0.00,,SKC,0.00,VWS V14.01,2013-02-13 16:53:00,
2013-02-13 10:58:00,26.1,21.9,29.61,SW,236,1.0,6.0,84,0.00,,SKC,0.00,VWS V14.01,2013-02-13 16:58:00,
2013-02-13 11:00:00,26.7,22.5,29.61,SW,236,2.0,6.0,84,0.00,,SKC,0.00,VWS V14.01,2013-02-13 17:00:00,
2013-02-13 11:03:00,26.5,22.3,29.61,SW,236,3.0,6.0,84,0.00,,SKC,0.00,VWS V14.01,2013-02-13 17:03:00,
2013-02-13 11:08:00,27.0,22.8,29.61,SW,236,0.0,2.0,84,0.00,,SKC,0.00,VWS V14.01,2013-02-13 17:08:00,
2013-02-13 11:13:00,27.9,23.7,29.61,SW,236,4.0,5.0,84,0.00,,SKC,0.00,VWS V14.01,2013-02-13 17:13:00,
2013-02-13 11:18:00,28.2,23.7,29.60,SW,236,0.0,5.0,83,0.00,,SKC,0.00,VWS V14.01,2013-02-13 17:18:00,
2013-02-13 11:23:00,28.7,23.9,29.60,SW,236,0.0,5.0,82,0.00,,SKC,0.00,VWS V14.01,2013-02-13 17:23:00,
2013-02-13 11:28:00,29.2,24.1,29.60,SW,236,0.0,5.0,81,0.00,,SKC,0.00,VWS V14.01,2013-02-13 17:28:00,
2013-02-13 11:30:00,30.0,24.9,29.60,SW,236,1.0,5.0,81,0.00,,SKC,0.00,VWS V14.01,2013-02-13 17:30:00,
2013-02-13 11:33:00,29.7,24.6,29.60,SW,236,0.0,5.0,81,0.00,,SKC,0.00,VWS V14.01,2013-02-13 17:33:00,
2013-02-13 11:38:00,30.2,24.8,29.60,SW,236,0.0,1.0,80,0.00,,SKC,0.00,VWS V14.01,2013-02-13 17:38:00,
2013-02-13 11:43:00,31.0,25.3,29.59,SW,234,0.0,5.0,79,0.00,,SKC,0.00,VWS V14.01,2013-02-13 17:43:00,
2013-02-13 11:48:00,31.7,25.3,29.59,SW,234,4.0,5.0,77,0.00,,SKC,0.00,VWS V14.01,2013-02-13 17:48:00,
2013-02-13 11:53:00,32.5,26.1,29.59,SW,234,0.0,5.0,77,0.00,,SKC,0.00,VWS V14.01,2013-02-13 17:53:00,
2013-02-13 11:58:00,32.9,25.9,29.59,SW,234,0.0,5.0,75,0.00,,SKC,0.00,VWS V14.01,2013-02-13 17:58:00,
2013-02-13 12:00:00,33.1,26.0,29.59,SW,231,3.0,6.0,75,0.00,,SKC,0.00,VWS V14.01,2013-02-13 18:00:00,
2013-02-13 12:03:00,33.4,26.3,29.59,SW,234,0.0,5.0,75,0.00,,SKC,0.00,VWS V14.01,2013-02-13 18:03:00,
2013-02-13 12:08:00,32.5,25.5,29.59,SW,231,1.0,3.0,75,0.00,,SKC,0.00,VWS V14.01,2013-02-13 18:08:00,
2013-02-13 12:14:00,32.5,25.5,29.59,SW,231,1.0,5.0,75,0.00,,SKC,0.00,VWS V14.01,2013-02-13 18:14:00,
2013-02-13 12:19:00,32.5,25.5,29.58,SW,231,0.0,5.0,75,0.00,,SKC,0.00,VWS V14.01,2013-02-13 18:19:00,
2013-02-13 12:24:00,33.0,26.3,29.58,SW,231,0.0,5.0,76,0.00,,SKC,0.00,VWS V14.01,2013-02-13 18:24:00,
2013-02-13 12:29:00,33.7,26.3,29.58,SW,231,0.0,5.0,74,0.00,,SKC,0.00,VWS V14.01,2013-02-13 18:29:00,
2013-02-13 12:30:00,34.4,26.7,29.58,SW,231,0.0,5.0,73,0.00,,SKC,0.00,VWS V14.01,2013-02-13 18:30:00,
2013-02-13 12:34:00,34.4,26.7,29.58,SW,231,0.0,5.0,73,0.00,,SKC,0.00,VWS V14.01,2013-02-13 18:34:00,
2013-02-13 12:39:00,34.8,26.7,29.58,SW,231,1.0,6.0,72,0.00,,SKC,0.00,VWS V14.01,2013-02-13 18:39:00,
2013-02-13 12:44:00,34.1,26.4,29.58,SW,228,0.0,7.0,73,0.00,,SKC,0.00,VWS V14.01,2013-02-13 18:44:00,
2013-02-13 12:49:00,34.1,26.4,29.57,SW,227,1.0,7.0,73,0.00,,SKC,0.00,VWS V14.01,2013-02-13 18:49:00,
2013-02-13 12:54:00,33.8,26.4,29.57,SW,227,0.0,7.0,74,0.00,,SKC,0.00,VWS V14.01,2013-02-13 18:54:00,
2013-02-13 12:59:00,34.4,26.7,29.57,SW,227,0.0,7.0,73,0.00,,SKC,0.00,VWS V14.01,2013-02-13 18:59:00,
2013-02-13 13:00:00,35.4,27.3,29.56,SW,227,0.0,7.0,72,0.00,,SKC,0.00,VWS V14.01,2013-02-13 19:00:00,
2013-02-13 13:04:00,35.2,27.1,29.56,SW,227,1.0,7.0,72,0.00,,SKC,0.00,VWS V14.01,2013-02-13 19:04:00,
2013-02-13 13:09:00,35.0,26.2,29.57,SW,227,5.0,5.0,70,0.00,,SKC,0.00,VWS V14.01,2013-02-13 19:09:00,
2013-02-13 13:14:00,34.4,26.0,29.56,SW,227,2.0,7.0,71,0.00,,SKC,0.00,VWS V14.01,2013-02-13 19:14:00,
2013-02-13 13:19:00,34.2,26.5,29.56,SW,227,2.0,7.0,73,0.00,,SKC,0.00,VWS V14.01,2013-02-13 19:19:00,
2013-02-13 13:24:00,34.3,26.6,29.56,SW,221,5.0,7.0,73,0.00,,SKC,0.00,VWS V14.01,2013-02-13 19:24:00,
2013-02-13 13:29:00,34.4,26.7,29.56,SW,221,0.0,7.0,73,0.00,,SKC,0.00,VWS V14.01,2013-02-13 19:29:00,
2013-02-13 13:30:00,35.4,27.3,29.56,SW,221,0.0,7.0,72,0.00,,SKC,0.00,VWS V14.01,2013-02-13 19:30:00,
2013-02-13 13:34:00,35.3,27.2,29.56,SW,221,0.0,7.0,72,0.00,,SKC,0.00,VWS V14.01,2013-02-13 19:34:00,
2013-02-13 13:39:00,35.9,27.8,29.55,SW,221,0.0,4.0,72,0.00,,SKC,0.00,VWS V14.01,2013-02-13 19:39:00,
2013-02-13 13:44:00,35.4,27.0,29.56,SW,221,0.0,5.0,71,0.00,,SKC,0.00,VWS V14.01,2013-02-13 19:44:00,
2013-02-13 13:49:00,35.3,26.9,29.55,SW,221,0.0,5.0,71,0.00,,SKC,0.00,VWS V14.01,2013-02-13 19:49:00,
2013-02-13 13:54:00,34.5,26.1,29.55,SSW,211,7.0,8.0,71,0.00,,SKC,0.00,VWS V14.01,2013-02-13 19:54:00,
2013-02-13 13:59:00,34.3,26.2,29.55,SSW,211,5.0,8.0,72,0.00,,SKC,0.00,VWS V14.01,2013-02-13 19:59:00,
2013-02-13 14:00:00,34.1,26.7,29.55,SSW,211,0.0,8.0,74,0.00,,SKC,0.00,VWS V14.01,2013-02-13 20:00:00,
2013-02-13 14:04:00,34.1,26.4,29.55,SSW,211,0.0,8.0,73,0.00,,SKC,0.00,VWS V14.01,2013-02-13 20:04:00,
2013-02-13 14:09:00,34.2,26.5,29.54,SSW,211,4.0,5.0,73,0.00,,SKC,0.00,VWS V14.01,2013-02-13 20:09:00,
2013-02-13 14:14:00,34.3,26.6,29.54,SSW,211,2.0,6.0,73,0.00,,SKC,0.00,VWS V14.01,2013-02-13 20:14:00,
2013-02-13 14:20:00,34.4,26.3,29.54,SSW,211,5.0,7.0,72,0.00,,SKC,0.00,VWS V14.01,2013-02-13 20:20:00,
2013-02-13 14:25:00,34.5,26.8,29.54,SSW,211,2.0,7.0,73,0.00,,SKC,0.00,VWS V14.01,2013-02-13 20:25:00,
2013-02-13 14:30:00,34.8,27.0,29.54,SSW,211,5.0,7.0,73,0.01,,SKC,0.01,VWS V14.01,2013-02-13 20:30:00,
2013-02-13 14:35:00,34.8,26.7,29.54,SSW,211,1.0,7.0,72,0.01,,SKC,0.01,VWS V14.01,2013-02-13 20:35:00,
2013-02-13 14:40:00,34.6,26.5,29.54,SSW,211,2.0,6.0,72,0.01,,SKC,0.01,VWS V14.01,2013-02-13 20:40:00,
2013-02-13 14:45:00,34.7,26.6,29.55,SSW,211,0.0,6.0,72,0.01,,SKC,0.01,VWS V14.01,2013-02-13 20:45:00,
2013-02-13 14:50:00,34.7,26.6,29.55,SSW,211,0.0,6.0,72,0.01,,SKC,0.01,VWS V14.01,2013-02-13 20:50:00,
2013-02-13 14:55:00,34.8,26.7,29.54,SSW,211,0.0,6.0,72,0.01,,SKC,0.01,VWS V14.01,2013-02-13 20:55:00,
2013-02-13 15:00:00,34.8,26.7,29.54,SSW,211,1.0,6.0,72,0.01,,SKC,0.01,VWS V14.01,2013-02-13 21:00:00,
2013-02-13 15:05:00,34.9,26.8,29.54,SSW,211,2.0,6.0,72,0.01,,SKC,0.01,VWS V14.01,2013-02-13 21:05:00,
2013-02-13 15:10:00,35.0,26.9,29.54,SSW,211,3.0,5.0,72,0.01,,SKC,0.01,VWS V14.01,2013-02-13 21:10:00,
2013-02-13 15:15:00,35.1,27.0,29.54,SSW,211,7.0,7.0,72,0.02,,SKC,0.02,VWS V14.01,2013-02-13 21:15:00,
2013-02-13 15:20:00,35.1,27.0,29.55,SSW,211,2.0,7.0,72,0.02,,SKC,0.02,VWS V14.01,2013-02-13 21:20:00,
2013-02-13 15:25:00,35.1,27.0,29.55,SSW,211,4.0,7.0,72,0.02,,SKC,0.02,VWS V14.01,2013-02-13 21:25:00,
2013-02-13 15:30:00,35.1,27.0,29.55,SSW,211,0.0,7.0,72,0.02,,SKC,0.02,VWS V14.01,2013-02-13 21:30:00,
2013-02-13 15:35:00,35.2,27.4,29.54,SSW,211,0.0,7.0,73,0.02,,SKC,0.02,VWS V14.01,2013-02-13 21:35:00,
2013-02-13 15:40:00,35.2,27.4,29.54,SSW,211,5.0,6.0,73,0.01,,SKC,0.02,VWS V14.01,2013-02-13 21:40:00,
2013-02-13 15:45:00,35.2,27.4,29.54,SSW,211,1.0,6.0,73,0.01,,SKC,0.02,VWS V14.01,2013-02-13 21:45:00,
2013-02-13 15:50:00,35.1,27.7,29.54,SSW,211,3.0,6.0,74,0.01,,SKC,0.02,VWS V14.01,2013-02-13 21:50:00,
2013-02-13 15:55:00,35.1,27.7,29.54,SSW,211,4.0,6.0,74,0.01,,SKC,0.02,VWS V14.01,2013-02-13 21:55:00,
2013-02-13 16:00:00,35.1,27.7,29.54,SSW,211,1.0,6.0,74,0.01,,SKC,0.02,VWS V14.01,2013-02-13 22:00:00,
2013-02-13 16:05:00,35.1,27.7,29.54,SSW,211,0.0,7.0,74,0.01,,SKC,0.02,VWS V14.01,2013-02-13 22:05:00,
2013-02-13 16:10:00,35.1,27.7,29.54,SSW,211,0.0,4.0,74,0.01,,SKC,0.02,VWS V14.01,2013-02-13 22:10:00,
2013-02-13 16:15:00,35.1,28.3,29.54,SSW,211,0.0,4.0,76,0.01,,SKC,0.02,VWS V14.01,2013-02-13 22:15:00,
2013-02-13 16:20:00,34.9,28.1,29.54,SSW,211,0.0,4.0,76,0.01,,SKC,0.02,VWS V14.01,2013-02-13 22:20:00,
2013-02-13 16:25:00,34.8,28.0,29.54,SSW,211,0.0,4.0,76,0.01,,SKC,0.02,VWS V14.01,2013-02-13 22:25:00,
2013-02-13 16:30:00,34.9,28.1,29.54,SSW,211,0.0,4.0,76,0.01,,SKC,0.02,VWS V14.01,2013-02-13 22:30:00,
2013-02-13 16:35:00,34.8,28.3,29.54,SSW,211,0.0,0.0,77,0.00,,SKC,0.02,VWS V14.01,2013-02-13 22:35:00,
2013-02-13 16:40:00,34.8,28.6,29.54,SSW,211,0.0,0.0,78,0.00,,SKC,0.02,VWS V14.01,2013-02-13 22:40:00,
2013-02-13 16:45:00,34.8,28.3,29.54,SSW,211,0.0,0.0,77,0.01,,SKC,0.03,VWS V14.01,2013-02-13 22:45:00,
2013-02-13 16:51:00,34.7,28.2,29.54,SSW,211,0.0,0.0,77,0.01,,SKC,0.03,VWS V14.01,2013-02-13 22:51:00,
2013-02-13 16:56:00,34.6,28.1,29.54,SSW,211,0.0,0.0,77,0.01,,SKC,0.03,VWS V14.01,2013-02-13 22:56:00,
2013-02-13 17:00:00,34.4,28.0,29.54,SSW,211,0.0,0.0,77,0.01,,SKC,0.03,VWS V14.01,2013-02-13 23:00:00,
2013-02-13 17:01:00,34.4,28.0,29.54,SSW,211,0.0,0.0,77,0.01,,SKC,0.03,VWS V14.01,2013-02-13 23:01:00,
2013-02-13 17:06:00,34.4,28.0,29.54,SSW,211,0.0,0.0,77,0.01,,SKC,0.03,VWS V14.01,2013-02-13 23:06:00,
2013-02-13 17:11:00,34.4,28.3,29.54,SSW,211,0.0,0.0,78,0.01,,SKC,0.03,VWS V14.01,2013-02-13 23:11:00,
2013-02-13 17:16:00,34.4,28.3,29.54,SSW,211,0.0,0.0,78,0.01,,SKC,0.03,VWS V14.01,2013-02-13 23:16:00,
2013-02-13 17:21:00,34.4,28.6,29.54,SSW,211,0.0,0.0,79,0.01,,SKC,0.03,VWS V14.01,2013-02-13 23:21:00,
2013-02-13 17:26:00,34.4,28.6,29.54,SSW,211,0.0,0.0,79,0.01,,SKC,0.03,VWS V14.01,2013-02-13 23:26:00,
2013-02-13 17:30:00,34.0,28.2,29.54,SSW,211,0.0,0.0,79,0.01,,SKC,0.03,VWS V14.01,2013-02-13 23:30:00,
2013-02-13 17:31:00,34.2,28.7,29.54,SSW,211,0.0,0.0,80,0.01,,SKC,0.03,VWS V14.01,2013-02-13 23:31:00,
2013-02-13 17:36:00,34.0,28.2,29.54,SSW,211,0.0,0.0,79,0.01,,SKC,0.03,VWS V14.01,2013-02-13 23:36:00,
2013-02-13 17:41:00,33.9,28.4,29.54,SSW,211,0.0,0.0,80,0.01,,SKC,0.03,VWS V14.01,2013-02-13 23:41:00,
2013-02-13 17:46:00,33.8,28.3,29.54,SSW,211,0.0,0.0,80,0.01,,SKC,0.03,VWS V14.01,2013-02-13 23:46:00,
2013-02-13 17:51:00,33.7,28.5,29.54,SSW,211,0.0,0.0,81,0.01,,SKC,0.03,VWS V14.01,2013-02-13 23:51:00,
2013-02-13 17:56:00,33.6,28.4,29.54,SSW,211,0.0,0.0,81,0.01,,SKC,0.03,VWS V14.01,2013-02-13 23:56:00,
2013-02-13 18:00:00,33.5,28.6,29.54,SSW,211,1.0,5.0,82,0.01,,SKC,0.03,VWS V14.01,2013-02-14 00:00:00,
2013-02-13 18:01:00,33.5,28.3,29.54,SSW,211,0.0,0.0,81,0.01,,SKC,0.03,VWS V14.01,2013-02-14 00:01:00,
2013-02-13 18:06:00,33.5,28.6,29.54,SSW,211,0.0,1.0,82,0.00,,SKC,0.03,VWS V14.01,2013-02-14 00:06:00,
2013-02-13 18:11:00,33.4,28.8,29.54,SSW,211,0.0,1.0,83,0.00,,SKC,0.03,VWS V14.01,2013-02-14 00:11:00,
2013-02-13 18:16:00,33.4,29.1,29.55,SSW,211,0.0,1.0,84,0.00,,SKC,0.03,VWS V14.01,2013-02-14 00:16:00,
2013-02-13 18:21:00,33.3,29.3,29.54,SSW,211,0.0,1.0,85,0.00,,SKC,0.03,VWS V14.01,2013-02-14 00:21:00,
2013-02-13 18:26:00,33.1,29.4,29.54,SSW,211,0.0,1.0,86,0.00,,SKC,0.03,VWS V14.01,2013-02-14 00:26:00,
2013-02-13 18:30:00,32.8,29.6,29.54,SSW,211,0.0,1.0,88,0.00,,SKC,0.03,VWS V14.01,2013-02-14 00:30:00,
2013-02-13 18:31:00,32.9,29.5,29.54,SSW,211,0.0,1.0,87,0.00,,SKC,0.03,VWS V14.01,2013-02-14 00:31:00,
2013-02-13 18:36:00,32.8,29.6,29.54,SSW,211,0.0,0.0,88,0.00,,SKC,0.03,VWS V14.01,2013-02-14 00:36:00,
2013-02-13 18:41:00,32.6,29.5,29.54,SSW,211,0.0,0.0,88,0.00,,SKC,0.03,VWS V14.01,2013-02-14 00:41:00,
2013-02-13 18:46:00,32.5,29.4,29.54,SSW,211,0.0,0.0,88,0.00,,SKC,0.03,VWS V14.01,2013-02-14 00:46:00,
2013-02-13 18:51:00,32.4,29.5,29.54,SSW,211,0.0,0.0,89,0.00,,SKC,0.03,VWS V14.01,2013-02-14 00:51:00,
2013-02-13 18:57:00,32.2,29.3,29.54,SSW,211,0.0,0.0,89,0.00,,SKC,0.03,VWS V14.01,2013-02-14 00:57:00,
2013-02-13 19:00:00,32.0,29.4,29.54,SSW,211,0.0,0.0,90,0.00,,SKC,0.03,VWS V14.01,2013-02-14 01:00:00,
2013-02-13 19:02:00,32.1,29.5,29.54,SSW,211,0.0,0.0,90,0.00,,SKC,0.03,VWS V14.01,2013-02-14 01:02:00,
2013-02-13 19:07:00,32.0,29.4,29.54,SSW,211,0.0,0.0,90,0.00,,SKC,0.03,VWS V14.01,2013-02-14 01:07:00,
2013-02-13 19:12:00,31.8,29.5,29.54,SSW,211,0.0,0.0,91,0.00,,SKC,0.03,VWS V14.01,2013-02-14 01:12:00,
2013-02-13 19:17:00,31.6,29.3,29.54,SSW,211,0.0,0.0,91,0.00,,SKC,0.03,VWS V14.01,2013-02-14 01:17:00,
2013-02-13 19:22:00,31.5,29.2,29.54,SSW,211,0.0,0.0,91,0.00,,SKC,0.03,VWS V14.01,2013-02-14 01:22:00,
2013-02-13 19:27:00,31.4,29.4,29.54,SSW,211,0.0,0.0,92,0.00,,SKC,0.03,VWS V14.01,2013-02-14 01:27:00,
2013-02-13 19:30:00,31.1,29.0,29.54,SSW,211,0.0,0.0,92,0.00,,SKC,0.03,VWS V14.01,2013-02-14 01:30:00,
2013-02-13 19:32:00,31.2,29.1,29.54,SSW,211,0.0,0.0,92,0.00,,SKC,0.03,VWS V14.01,2013-02-14 01:32:00,
2013-02-13 19:37:00,31.1,29.0,29.54,SSW,211,0.0,0.0,92,0.00,,SKC,0.03,VWS V14.01,2013-02-14 01:37:00,
2013-02-13 19:42:00,31.0,29.0,29.54,SSW,211,0.0,0.0,92,0.00,,SKC,0.03,VWS V14.01,2013-02-14 01:42:00,
2013-02-13 19:47:00,31.0,29.2,29.54,SSW,211,0.0,0.0,93,0.00,,SKC,0.03,VWS V14.01,2013-02-14 01:47:00,
2013-02-13 19:52:00,31.0,29.2,29.53,SSW,211,0.0,0.0,93,0.00,,SKC,0.03,VWS V14.01,2013-02-14 01:52:00,
2013-02-13 19:57:00,31.0,29.2,29.53,SSW,211,0.0,0.0,93,0.00,,SKC,0.03,VWS V14.01,2013-02-14 01:57:00,
2013-02-13 20:00:00,31.0,29.2,29.53,SSW,211,0.0,0.0,93,0.00,,SKC,0.03,VWS V14.01,2013-02-14 02:00:00,
2013-02-13 20:02:00,31.0,29.2,29.53,SSW,211,0.0,0.0,93,0.00,,SKC,0.03,VWS V14.01,2013-02-14 02:02:00,
2013-02-13 20:07:00,31.0,29.2,29.53,SSW,211,0.0,0.0,93,0.00,,SKC,0.03,VWS V14.01,2013-02-14 02:07:00,
2013-02-13 20:12:00,31.0,29.2,29.53,SSW,211,0.0,0.0,93,0.00,,SKC,0.03,VWS V14.01,2013-02-14 02:12:00,
2013-02-13 20:17:00,31.0,29.2,29.53,SSW,211,0.0,0.0,93,0.00,,SKC,0.03,VWS V14.01,2013-02-14 02:17:00,
2013-02-13 20:22:00,31.0,29.2,29.53,SSW,211,0.0,0.0,93,0.00,,SKC,0.03,VWS V14.01,2013-02-14 02:22:00,
2013-02-13 20:27:00,31.2,29.7,29.53,SSW,211,0.0,0.0,94,0.00,,SKC,0.03,VWS V14.01,2013-02-14 02:27:00,
2013-02-13 20:30:00,31.2,29.7,29.53,SSW,211,0.0,0.0,94,0.00,,SKC,0.03,VWS V14.01,2013-02-14 02:30:00,
2013-02-13 20:32:00,31.2,29.7,29.53,SSW,211,0.0,0.0,94,0.00,,SKC,0.03,VWS V14.01,2013-02-14 02:32:00,
2013-02-13 20:37:00,31.2,29.7,29.53,SSW,211,0.0,0.0,94,0.00,,SKC,0.03,VWS V14.01,2013-02-14 02:37:00,
2013-02-13 20:42:00,31.1,29.6,29.53,SSW,211,0.0,0.0,94,0.00,,SKC,0.03,VWS V14.01,2013-02-14 02:42:00,
2013-02-13 20:47:00,31.0,29.5,29.53,SSW,211,0.0,0.0,94,0.00,,SKC,0.03,VWS V14.01,2013-02-14 02:47:00,
2013-02-13 20:52:00,31.0,29.5,29.53,SSW,211,0.0,0.0,94,0.00,,SKC,0.03,VWS V14.01,2013-02-14 02:52:00,
2013-02-13 20:57:00,31.0,29.5,29.53,SSW,211,0.0,0.0,94,0.00,,SKC,0.03,VWS V14.01,2013-02-14 02:57:00,
2013-02-13 21:00:00,30.9,29.4,29.53,SSW,211,0.0,0.0,94,0.00,,SKC,0.03,VWS V14.01,2013-02-14 03:00:00,
2013-02-13 21:02:00,31.0,29.5,29.53,SSW,211,0.0,0.0,94,0.00,,SKC,0.03,VWS V14.01,2013-02-14 03:02:00,
2013-02-13 21:08:00,30.9,29.4,29.52,SSW,211,0.0,0.0,94,0.00,,SKC,0.03,VWS V14.01,2013-02-14 03:08:00,
2013-02-13 21:13:00,30.9,29.4,29.52,SSW,211,0.0,0.0,94,0.00,,SKC,0.03,VWS V14.01,2013-02-14 03:13:00,
2013-02-13 21:18:00,30.8,29.3,29.52,SSW,211,0.0,0.0,94,0.00,,SKC,0.03,VWS V14.01,2013-02-14 03:18:00,
2013-02-13 21:23:00,30.8,29.3,29.52,SSW,211,0.0,0.0,94,0.00,,SKC,0.03,VWS V14.01,2013-02-14 03:23:00,
2013-02-13 21:28:00,31.1,29.6,29.52,SSW,211,0.0,0.0,94,0.00,,SKC,0.03,VWS V14.01,2013-02-14 03:28:00,
2013-02-13 21:30:00,31.2,29.7,29.52,SSW,211,0.0,0.0,94,0.00,,SKC,0.03,VWS V14.01,2013-02-14 03:30:00,
2013-02-13 21:33:00,31.3,29.8,29.52,SSW,211,0.0,0.0,94,0.00,,SKC,0.03,VWS V14.01,2013-02-14 03:33:00,
2013-02-13 21:38:00,31.1,29.6,29.52,SSW,211,0.0,0.0,94,0.00,,SKC,0.03,VWS V14.01,2013-02-14 03:38:00,
2013-02-13 21:43:00,31.0,29.5,29.52,SSW,211,0.0,0.0,94,0.00,,SKC,0.03,VWS V14.01,2013-02-14 03:43:00,
2013-02-13 21:48:00,30.9,29.4,29.52,SSW,211,0.0,0.0,94,0.00,,SKC,0.03,VWS V14.01,2013-02-14 03:48:00,
2013-02-13 21:56:00,30.7,29.2,29.52,SSW,211,0.0,0.0,94,0.00,,SKC,0.03,VWS V14.01,2013-02-14 03:56:00,
2013-02-13 22:00:00,30.6,29.1,29.52,SSW,211,0.0,0.0,94,0.00,,SKC,0.03,VWS V14.01,2013-02-14 04:00:00,
2013-02-13 22:01:00,30.6,29.1,29.52,SSW,211,0.0,0.0,94,0.00,,SKC,0.03,VWS V14.01,2013-02-14 04:01:00,
2013-02-13 22:06:00,30.6,29.1,29.52,SSW,211,0.0,0.0,94,0.00,,SKC,0.03,VWS V14.01,2013-02-14 04:06:00,
2013-02-13 22:11:00,30.6,29.1,29.52,SSW,211,0.0,0.0,94,0.00,,SKC,0.03,VWS V14.01,2013-02-14 04:11:00,
2013-02-13 22:16:00,30.5,29.0,29.52,SSW,211,0.0,0.0,94,0.00,,SKC,0.03,VWS V14.01,2013-02-14 04:16:00,
2013-02-13 22:21:00,30.5,29.0,29.52,SSW,211,0.0,0.0,94,0.00,,SKC,0.03,VWS V14.01,2013-02-14 04:21:00,
2013-02-13 22:26:00,30.5,29.0,29.52,SSW,211,0.0,0.0,94,0.00,,SKC,0.03,VWS V14.01,2013-02-14 04:26:00,
2013-02-13 22:30:00,30.7,29.2,29.52,SSW,211,0.0,0.0,94,0.00,,SKC,0.03,VWS V14.01,2013-02-14 04:30:00,
2013-02-13 22:31:00,30.6,29.1,29.52,SSW,211,0.0,0.0,94,0.00,,SKC,0.03,VWS V14.01,2013-02-14 04:31:00,
2013-02-13 22:36:00,30.7,29.2,29.52,SSW,211,0.0,0.0,94,0.00,,SKC,0.03,VWS V14.01,2013-02-14 04:36:00,
2013-02-13 22:41:00,30.6,29.1,29.52,SSW,211,0.0,0.0,94,0.00,,SKC,0.03,VWS V14.01,2013-02-14 04:41:00,
2013-02-13 22:46:00,30.5,29.0,29.52,SSW,211,0.0,0.0,94,0.00,,SKC,0.03,VWS V14.01,2013-02-14 04:46:00,
2013-02-13 22:51:00,30.5,29.0,29.52,SSW,211,0.0,0.0,94,0.00,,SKC,0.03,VWS V14.01,2013-02-14 04:51:00,
2013-02-13 22:56:00,30.5,29.0,29.53,SSW,211,0.0,0.0,94,0.00,,SKC,0.03,VWS V14.01,2013-02-14 04:56:00,
2013-02-13 23:00:00,30.4,28.9,29.53,SSW,211,0.0,0.0,94,0.00,,SKC,0.03,VWS V14.01,2013-02-14 05:00:00,
2013-02-13 23:01:00,30.4,29.1,29.53,SSW,211,0.0,0.0,95,0.00,,SKC,0.03,VWS V14.01,2013-02-14 05:01:00,
2013-02-13 23:04:00,30.4,29.1,29.53,SSW,211,0.0,0.0,95,0.00,,SKC,0.03,VWS V14.01,2013-02-14 05:04:00,
2013-02-13 23:06:00,30.4,29.1,29.52,SSW,212,0.0,0.0,95,0.00,,SKC,0.03,VWS V14.01,2013-02-14 05:06:00,
2013-02-13 23:11:00,30.3,29.0,29.52,SW,215,0.0,0.0,95,0.00,,SKC,0.03,VWS V14.01,2013-02-14 05:11:00,
2013-02-13 23:16:00,30.3,29.0,29.52,SW,215,0.0,0.0,95,0.00,,SKC,0.03,VWS V14.01,2013-02-14 05:16:00,
2013-02-13 23:21:00,30.3,29.0,29.52,WNW,301,0.0,0.0,95,0.00,,SKC,0.03,VWS V14.01,2013-02-14 05:21:00,
2013-02-13 23:26:00,30.2,28.9,29.53,WNW,301,0.0,0.0,95,0.00,,SKC,0.03,VWS V14.01,2013-02-14 05:26:00,
2013-02-13 23:30:00,30.3,29.0,29.53,NNE,17,0.0,0.0,95,0.00,,SKC,0.03,VWS V14.01,2013-02-14 05:30:00,
2013-02-13 23:31:00,30.2,28.9,29.53,NW,321,0.0,0.0,95,0.00,,SKC,0.03,VWS V14.01,2013-02-14 05:31:00,
2013-02-13 23:36:00,30.2,28.9,29.53,NNE,17,0.0,0.0,95,0.00,,SKC,0.03,VWS V14.01,2013-02-14 05:36:00,
2013-02-13 23:41:00,30.2,28.9,29.53,NNE,19,0.0,0.0,95,0.00,,SKC,0.03,VWS V14.01,2013-02-14 05:41:00,
2013-02-13 23:46:00,30.1,28.8,29.54,NNE,19,0.0,0.0,95,0.00,,SKC,0.03,VWS V14.01,2013-02-14 05:46:00,
2013-02-13 23:51:00,30.1,28.8,29.54,NNE,20,0.0,0.0,95,0.00,,SKC,0.03,VWS V14.01,2013-02-14 05:51:00,
2013-02-13 23:56:00,30.0,28.7,29.54,NNE,21,0.0,0.0,95,0.00,,SKC,0.03,VWS V14.01,2013-02-14 05:56:00,